Retour au catalogue

SL-14 DEB

ActifPO
NORAD 45469·DEBRIS·🇷🇺 Russia

Lancé Aug 15, 1991 depuis Plesetsk Cosmodrome

Loading…

Prochains Passages (prochaines 24 heures)

TLE

FraisSource: Space-Track

Époque: Sep 13, 2026, 06:22 UTC

1 45469U 91056CU  26256.26583626  .00000831  00000-0  13931-2 0  9999
2 45469  82.5505   5.7569 0099495 323.4292  36.0079 13.43087561317260

Suivez SL-14 DEB en temps réel avec AllMySat

Download on the App Store